Regional Weather Roundup
Issued by NWS State College, PA

Home | Current Version | Previous Version | Text Only | Print | Product List | Glossary On
Versions: 1 2 3 4 5 6 7 8 9 10 11 12 13 14 15 16 17 18 19 20 21 22 23 24 25 26 27 28 29 30 31 32 33 34 35 36 37 38 39 40 41 42 43 44 45 46 47 48 49 50
000
ASUS41 KCTP 211703
RWRCTP

REGIONAL WEATHER ROUNDUP
NATIONAL WEATHER SERVICE STATE COLLEGE PA
100 PM EDT FRI JUL 21 2017

Note: "fair" indicates few or no clouds below 12,000 feet with no
significant weather and/or obstructions to visibility.

* = STATION THAT DOES NOT REPORT PRECIPITATION /E.G. RAIN...SNOW...ETC/
    THUNDER OR FOG.

PAZ002>004-007>009-013>016-020>023-029>032-211800-
WESTERN PENNSYLVANIA

CITY           SKY/WX    TMP DP  RH WIND       PRES   REMARKS
ERIE           PTSUNNY   84  70  62 NW7       29.97S
MEADVILLE      MOSUNNY   83  71  67 W7        30.01F
FRANKLIN*      MOSUNNY   82  66  57 W3        30.01F
NEW CASTLE     FAIR      87  72  60 VRB3      30.00F
BEAVER COUNTY  MOSUNNY   84  70  61 CALM      30.01F
BUTLER*        PTSUNNY   82  72  69 CALM      30.01F
PITTSBURGH INT CLOUDY    85  71  63 CALM      30.00S
PITTSBURGH     CLOUDY    84  70  62 CALM      30.00S
INDIANA*       MOSUNNY   81  73  78 VRB3      30.04F
LATROBE        PTSUNNY   82  73  74 CALM      30.01F
WASHINGTON CO* PTSUNNY   82  73  74 CALM      30.01S
$$

PAZ004>006-010>012-017>019-024>028-033>037-041-042-045-046-049>053-211800-
CENTRAL PENNSYLVANIA

CITY           SKY/WX    TMP DP  RH WIND       PRES   REMARKS
BRADFORD       CLOUDY    82  64  54 W10       30.03S
DUBOIS         CLOUDY    80  67  64 SW8       30.02S
CLEARFIELD     CLOUDY    83  69  62 W5        30.02S
JOHNSTOWN      CLOUDY    80  69  69 W8        30.06S
ALTOONA        CLOUDY    83  73  72 SW3       30.02S
STATE COLLEGE  NOT AVBL
WILLIAMSPORT   CLOUDY    86  71  60 S5        29.93F
SELINSGROVE    CLOUDY    84  72  67 VRB3      29.95F
FT INDIANTOWN  CLOUDY    87  69  55 SW5       29.96S
CAPITAL CITY   CLOUDY    90  67  46 N5        29.95F
HARRISBURG     CLOUDY    88  70  55 CALM      29.94F
YORK           CLOUDY    89  73  59 VRB3      29.96F HX  97
$$

PAZ038>040-043-044-047-048-054-055-060>062-067>071-211800-
EASTERN PENNSYLVANIA

CITY           SKY/WX    TMP DP  RH WIND       PRES   REMARKS
SCRANTON       CLOUDY    86  68  54 NW6G17    29.96F
MOUNT POCONO   MOSUNNY   79  66  64 NW7       30.01S
ALLENTOWN      SUNNY     88  67  49 VRB7      29.94F
QUAKERTOWN*    SUNNY     88  68  51 NW6       29.96S
READING        CLOUDY    88  72  58 VRB6      29.94S
LANCASTER      CLOUDY    91  71  51 W6        29.96S HX  97
COATESVILLE    CLOUDY    86  72  62 W7        29.98S
POTTSTOWN      MOSUNNY   86  69  56 NW5       29.96F
BLUE BELL      PTSUNNY   86  70  58 NW7       29.95S
DOYLESTOWN     SUNNY     89  69  51 VRB6      29.93F
WILLOW GROVE   NOT AVBL
NORTH PHILA    MOSUNNY   91  70  49 W10       29.93F HX  96
PHILADELPHIA   PTSUNNY   92  67  43 VRB6      29.92F HX  95
$$




USA.gov is the U.S. government's official web portal to all federal, state and local government web resources and services.